User: anonymous   Login
Location: Al Mulaqqa?ah
(24.1833°N, 32.8833°E)
Time: 15:37:48
(UTC+00:00)
Language:

H-2A R/B - Orbit

View from above orbital plane
View from above orbital plane
View from above satellite
View from above satellite

Ground track
Ground track

The orbit data is extracted from the following two-line orbital elements,

1 28932U 06002B   21330.83633822  .00000644  00000-0  64059-4 0  9998
2 28932  98.3170 357.0928 0088582  36.7157 135.3615 14.92783631859806
Epoch (UTC): 26 November 2021 20:04:19
Eccentricity: 0.0088582
inclination: 98.3170°
perigee height: 527 km
apogee height: 651 km
right ascension of ascending node: 357.0928°
argument of perigee: 36.7157°
revolutions per day: 14.92783631
mean anomaly at epoch: 135.3615°
orbit number at epoch: 85980

The dashed part of the orbit path shows where the satellite is in the earth's shadow,  

DLR